Regional Weather Roundup
Issued by NWS

Home | Current Version | Previous Version | Graphics & Text | Print | Product List | Glossary On
Versions: 1 2 3 4 5 6 7 8 9 10 11 12 13 14 15 16 17 18 19 20 21 22 23 24 25 26 27 28 29 30 31 32 33 34 35 36 37 38 39 40 41 42 43 44 45 46 47 48 49 50
000
ASUS43 KBIS 250459
RWRND

NORTH DAKOTA REGIONAL WEATHER ROUNDUP
NATIONAL WEATHER SERVICE BISMARCK ND
1200 AM CDT FRI JUL 25 2014

NOTE: "FAIR" INDICATES FEW OR NO CLOUDS BELOW 12,000 FEET WITH NO
SIGNIFICANT WEATHER AND/OR OBSTRUCTIONS TO VISIBILITY.


NDZ001>003-009>011-017-250600-
NORTHWEST NORTH DAKOTA

CITY           SKY/WX    TMP DP  RH WIND       PRES   REMARKS
WILLISTON      MOCLDY    64  60  87 NW10      29.80R
MINOT          CLOUDY    69  66  90 E7        29.74R
$$

NDZ018>021-031>035-040>046-250600-
SOUTHWEST NORTH DAKOTA

CITY           SKY/WX    TMP DP  RH WIND       PRES   REMARKS
BISMARCK       CLOUDY    73  64  73 S6        29.76R
GARRISON         N/A     70  67  90 E9        29.68F
HETTINGER ARPT PTCLDY    70  66  87 NW9       29.75R
$$

NDZ004>008-012>016-024-026-027-054-250600-
NORTHEAST NORTH DAKOTA

CITY           SKY/WX    TMP DP  RH WIND       PRES   REMARKS
GRAND FORKS    CLOUDY    70  62  76 SE9       29.79F
DEVILS LAKE    CLOUDY    68  61  77 SE9       29.79R
$$

NDZ022-023-025-028>030-036>039-047>053-250600-
SOUTHEAST NORTH DAKOTA

CITY           SKY/WX    TMP DP  RH WIND       PRES   REMARKS
FARGO          PTCLDY    70  61  73 SE10      29.78F
$$



USA.gov is the U.S. government's official web portal to all federal, state and local government web resources and services.